Location: Johnson City
(36.3130°N, 82.3540°W)
Time: 02:07:15
(UTC-04:00)

OTV 5 (USA 277) - Visible Passes

Search period start: 25 June 2018 00:00
Search period end: 05 July 2018 00:00
Orbit: 313 x 320 km, 54.5° (Epoch: 21 June)

Date Brightness Start Highest point End Pass type
(mag) Time Alt. Az. Time Alt. Az. Time Alt. Az.
28 Jun ? 23:52:34 10° N 23:52:54 12° N 23:52:54 12° N visible
30 Jun ? 00:06:18 10° NNW 00:06:27 11° NNW 00:06:27 11° NNW visible
30 Jun ? 22:48:05 10° NNE 22:48:44 11° NNE 22:49:12 10° NE visible
01 Jul ? 23:01:08 10° NNW 23:02:51 22° NNE 23:02:51 22° NNE visible
02 Jul ? 23:15:11 10° NW 23:16:33 26° NW 23:16:33 26° NW visible
03 Jul ? 21:56:08 10° N 21:57:52 15° NE 21:59:27 11° ENE visible
03 Jul ? 23:29:50 10° WNW 23:30:19 13° WNW 23:30:19 13° WNW visible
04 Jul ? 22:09:52 10° NNW 22:12:25 38° NE 22:13:16 29° E visible
